SCP
0 0 0 0 0 0 0 0 0 0 0 0 0 0 0 0 0 0 0 0 0 0 0 0 0 0 0 0 0 0 0 0 0 0 0 0 0 0
0 0 0 0 0 0 0 0 0 0 0 0 0 0 0 0 0 0 0 0 0 0 0 0 0 0 0 0 0 0 0 0 0 0 0 0 0 0
0 0 0 0 0 0 0 0 0 0 0 0 0 0 0 0 0 0 0 0 0 0 0 0 0 0 0 0 0 0 0 0 0 0 0 0 0 0
0 0 0 0 0 0 0 0 0 0 0 0 0 0 0 0 0 0 0 0 0 0 0 0 0 0 0 0 0 0 0 0 0 0 0 0 0 0
0 0 0 0 0 0 0 0 0 0 0 0 0 0 0 0 0 0 0 0 0 0 0 0 0 0 0 0 0 0 0 0 0 0 0 0 0 0
0 0 0 0 0 0 0 0 0 0 0 0 0 0 0 0 0 0 0 0 0 0 0 0 0 0 0 0 0 0 0 0 0 0 -0 0 0 0
0 0 0 0 0 0 0 0 0 0 0 0 0 0 0 0 0 0 0 0 0 0 0 0 0 0 0 0 0 0 0 0 0 0 0 0 0 0
0 0 0 0 0 0 0 0 0 0 0 0 0 0 0 0 0 0 0 0 0 0 0 0 0 0 0 0 0 0 0 0 0 -0 0 0 0 0
0 0 0 0 0 0 0 0 0 0 0 0 0 0 0 0 0 0 0 0 0 0 0 0 0 0 0 0 0 0 0 0 0 0 0 -0 0 0
0 0 0 0 0 0 0 0 0 0 0 0 0 0 0 0 0 0 0 0 0 0 0 0 0 0 0 0 0 0 0 0 0 0 0 0 0 0
0 0 0 0 0 0 0 0 0 0 0 0 0 0 0 0 0 0 0 0 0 0 0 0 0 0 0 0 0 0 0 0 0 0 0 0 0 0
0 0 0 0 0 0 0 0 0 0 0 0 0 0 0 0 0 0 0 0 0 0 0 0 0 0 0 0 0 0 0 0 0 0 0 0 0 0
0 0 0 0 0 0 0 0 0 0 0 0 0 0 0 0 0 0 0 0 0 0 0 0 0 0 0 0 -0 0 0 0 0 0 0 0 0 0
0 0 0 0 0 0 0 0 0 0 0 0 0 0 0 0 0 0 0 0 0 0 0 0 0 0 0 0 0 0 0 0 0 0 -0 0 0 0
0 0 0 0 0 0 0 0 0 0 0 0 0 0 0 0 0 0 0 0 0 0 0 0 0 0 0 0 0 0 0 0 0 0 0 0 0 0
0 0 0 0 0 0 0 0 0 0 0 0 0 0 0 0 0 0 0 0 0 0 0 0 0 0 0 0 0 0 0 0 0 0 0 0 0 0
0 0 0 0 0 0 0 0 0 0 0 0 0 0 0 0 0 0 0 0 0 0 0 0 0 0 0 0 0 0 0 0 0 0 0 0 0 0
0 0 0 0 0 0 0 0 0 0 0 0 0 0 0 0 0 0 0 0 0 0 0 0 0 0 0 0 0 0 0 0 0 0 0 0 0 0
0 0 0 0 0 0 0 0 0 0 0 0 0 0 0 0 0 0 0 0 0 0 0 0 0 0 0 0 0 0 0 0 0 0 0 0 0 0
0 0 0 0 0 0 0 0 0 0 0 0 0 0 0 0 0 0 0 0 0 0 0 0 0 0 0 0 0 0 0 0 0 0 0 0 0 0
0 0 0 0 0 0 0 0 0 0 0 0 0 0 0 0 0 0 0 0 0 0 0 0 0 0 0 0 0 0 -0 0 -0 0 0 0 0 0
0 0 0 0 0 0 0 0 0 0 0 0 0 0 0 0 0 0 0 0 0 0 0 0 0 0 0 0 0 0 0 0 -0 0 0 0 0 0
0 0 0 0 0 0 0 0 0 0 0 0 0 0 0 0 0 0 0 0 0 0 0 0 0 0 0 0 0 0 -0 -0 0 0 0 0 0 0
Wind_Speed_500mb
56 61 50 38 34 31 28 24 21 15 14 17 23 27 36 41 51 59 53 58 49 40 43 50 58 64 70 47 41 43 43 42 43 43 42 41 40 41
50 39 35 29 22 18 14 13 27 32 36 34 35 43 47 47 37 42 39 36 39 45 51 57 62 56 47 41 42 42 44 45 45 45 45 41 41 43
28 28 23 18 18 23 28 32 23 22 26 32 37 39 38 38 40 41 43 45 48 46 48 53 61 41 38 40 44 43 46 49 50 52 47 46 42 38
28 26 25 25 28 25 19 19 24 31 35 34 36 37 37 39 42 42 43 44 44 45 54 57 29 36 43 47 47 47 49 48 45 38 45 44 43 41
24 18 18 17 18 21 23 25 29 29 28 30 35 41 44 42 42 43 43 47 53 62 68 60 46 47 50 45 44 47 41 40 47 35 39 45 42 45
20 20 21 24 26 26 27 29 27 29 33 38 43 47 52 49 49 50 54 55 61 59 55 50 51 48 50 45 36 34 37 38 24 29 30 29 30 38
24 24 24 25 23 25 29 28 27 31 37 41 43 45 45 44 44 52 53 50 54 56 56 51 49 49 46 33 33 34 33 30 31 32 26 29 33 26
29 28 32 31 32 31 33 36 37 35 39 45 48 48 51 52 51 50 51 52 57 49 49 48 49 46 36 32 36 37 38 34 32 33 32 22 28 34
23 26 29 29 30 29 30 31 32 33 33 34 42 44 45 37 41 42 44 41 44 47 50 51 46 43 34 39 40 40 38 36 39 31 31 26 24 23
22 24 26 24 22 28 31 31 24 18 17 22 29 32 30 28 39 40 47 48 51 53 47 52 46 51 46 43 35 39 42 40 34 34 32 32 27 24
19 23 27 27 23 10 15 16 20 21 23 29 32 29 31 35 42 47 48 51 57 54 49 44 48 38 42 42 45 35 38 30 25 26 26 28 30 27
14 15 16 10 3 6 18 17 26 29 25 29 34 40 43 45 45 43 40 38 38 39 13 20 40 42 40 36 14 17 21 26 28 26 23 22 22 29
3 4 6 5 6 16 23 19 13 27 28 33 37 34 28 26 28 30 29 34 38 39 36 38 35 34 44 50 52 45 30 36 36 35 36 35 39 45
10 8 10 13 14 18 16 13 21 18 15 17 23 25 26 25 24 24 28 29 31 35 38 37 40 42 44 49 52 55 51 46 45 45 47 56 56 42
15 14 17 11 14 13 9 2 7 11 15 22 27 27 27 28 27 25 24 26 31 33 30 29 28 30 31 35 41 42 42 45 39 43 43 40 38 40
12 13 12 7 4 7 5 7 12 15 21 24 27 30 35 37 32 26 28 27 32 31 17 21 26 29 34 36 38 38 32 34 36 36 28 33 40 39
12 14 6 6 6 5 4 7 11 13 18 26 32 36 38 41 40 39 33 29 32 35 31 23 23 28 32 36 39 39 35 34 34 36 34 35 38 39
15 9 4 4 2 2 2 4 9 13 19 23 27 32 35 37 39 42 45 44 39 33 33 27 27 28 30 33 30 29 28 32 32 30 30 36 37 34
10 8 8 8 7 3 7 11 13 16 21 24 28 27 33 35 37 39 41 42 46 44 35 31 30 28 33 38 38 29 28 29 31 32 29 31 34 26
14 12 12 14 12 11 11 17 22 23 26 30 30 34 36 38 41 41 43 44 43 45 49 43 35 28 30 36 42 38 33 36 30 32 26 22 20 20
14 14 18 21 23 21 20 23 25 28 32 35 34 38 40 40 43 56 48 39 40 42 46 45 39 28 31 35 42 44 36 33 34 30 29 25 25 24
15 18 21 24 28 32 26 27 30 32 34 39 41 41 40 39 43 56 44 45 43 45 45 43 36 36 32 31 35 40 38 31 25 29 29 30 31 26
21 23 26 27 30 30 27 31 35 35 36 38 38 38 35 36 53 49 46 50 49 42 43 46 41 37 34 37 37 36 35 27 23 26 31 32 35 36
Wind_Direction_500mb
226 244 271 255 257 254 257 259 258 240 247 257 256 266 269 274 279 280 282 285 281 276 284 292 298 302 301 301 296 293 291 285 279 274 277 268 263 258
260 254 246 247 245 255 259 270 282 286 277 278 268 274 284 290 281 276 286 282 282 288 294 296 297 300 300 299 295 289 287 286 278 270 263 267 268 265
226 229 233 238 249 257 269 275 273 261 265 268 280 284 286 289 294 294 292 294 297 303 301 302 297 288 287 290 296 294 289 285 284 275 267 262 260 258
211 211 225 237 248 253 248 255 263 270 277 282 285 284 282 285 290 288 291 293 290 291 296 306 290 285 289 293 295 288 282 278 283 280 264 258 255 250
218 209 209 224 247 257 261 268 275 278 283 284 285 285 289 291 290 287 285 282 282 288 294 297 287 285 292 296 291 289 290 270 272 279 264 256 251 243
198 214 235 246 249 259 276 280 280 282 282 281 284 288 293 294 295 299 296 295 296 297 294 292 289 288 287 297 284 288 289 287 284 277 268 257 255 245
232 238 247 254 259 273 277 277 275 277 284 287 293 296 297 298 302 303 303 305 303 302 302 298 297 292 286 276 269 281 284 281 280 287 264 253 259 251
244 250 251 254 259 263 268 271 275 286 290 293 292 292 292 295 299 300 298 301 304 313 311 302 303 301 299 287 282 279 263 267 273 280 286 279 269 259
248 251 256 260 263 267 270 279 280 281 286 296 294 293 296 300 302 305 307 306 309 312 309 304 302 299 305 287 286 274 273 262 260 262 266 268 267 266
251 256 260 263 268 273 272 278 291 305 308 295 300 302 303 306 304 303 300 302 300 300 308 295 301 303 307 292 295 273 263 267 259 251 264 268 262 266
254 259 266 267 269 267 282 296 304 313 296 293 291 289 298 284 282 291 293 296 300 302 298 297 294 302 303 302 299 282 255 244 244 244 262 275 259 260
249 254 261 260 220 286 284 293 310 308 313 308 301 301 296 291 289 290 293 293 304 302 317 299 301 304 305 314 323 300 244 233 246 256 265 261 274 280
318 237 194 177 274 256 267 287 303 289 300 303 307 311 320 319 313 307 303 298 295 285 285 297 296 291 291 292 295 295 271 235 238 241 248 253 281 278
288 262 266 256 265 258 247 229 268 312 330 346 348 340 333 330 325 316 308 299 297 294 298 300 291 284 280 286 292 291 289 276 260 251 255 265 276 265
284 271 280 229 256 260 284 14 36 10 12 21 17 9 353 339 331 317 315 304 294 293 295 295 292 289 288 288 295 296 292 286 279 273 271 266 253 257
281 289 267 286 265 142 112 52 22 19 18 10 12 12 13 11 8 340 328 326 320 318 299 289 296 294 290 287 291 295 290 283 284 279 269 256 247 250
282 297 197 169 184 144 65 41 16 10 7 5 6 4 3 3 5 6 354 335 322 319 316 311 297 289 286 286 286 285 285 289 293 288 277 268 253 247
267 264 214 231 266 316 289 337 342 342 342 347 350 352 353 355 355 358 355 355 346 329 322 319 305 298 292 293 293 292 283 296 296 288 277 270 264 247
276 249 249 260 286 342 329 331 346 342 333 323 328 336 339 337 340 340 341 342 341 340 336 326 312 300 299 291 306 296 292 302 294 289 279 268 253 252
284 259 262 270 291 293 297 303 315 325 322 319 324 323 323 322 327 329 330 333 331 333 333 329 320 307 297 295 301 299 291 289 294 280 277 263 260 261
296 267 270 272 282 289 298 305 311 315 314 315 319 318 322 326 316 326 328 323 318 321 321 329 333 315 292 288 286 291 295 294 284 276 268 260 264 264
291 280 275 273 281 291 294 293 298 303 308 310 312 315 315 315 317 320 324 324 321 321 312 315 322 328 316 303 294 296 300 296 269 259 258 257 255 257
280 280 275 271 273 280 290 287 290 297 304 307 318 315 317 308 308 320 321 321 318 314 320 318 313 310 315 312 310 308 312 318 296 264 251 252 255 257
Wind_Speed_850mb
56 61 50 38 34 31 28 24 21 15 14 17 23 27 36 41 51 59 53 58 49 40 43 50 58 64 70 47 41 43 43 42 43 43 42 41 40 41
50 39 35 29 22 18 14 13 27 32 36 34 35 43 47 47 37 42 39 36 39 45 51 57 62 56 47 41 42 42 44 45 45 45 45 41 41 43
28 28 23 18 18 23 28 32 23 22 26 32 37 39 38 38 40 41 43 45 48 46 48 53 61 41 38 40 44 43 46 49 50 52 47 46 42 38
28 26 25 25 28 25 19 19 24 31 35 34 36 37 37 39 42 42 43 44 44 45 54 57 29 36 43 47 47 47 49 48 45 38 45 44 43 41
24 18 18 17 18 21 23 25 29 29 28 30 35 41 44 42 42 43 43 47 53 62 68 60 46 47 50 45 44 47 41 40 47 35 39 45 42 45
20 20 21 24 26 26 27 29 27 29 33 38 43 47 52 49 49 50 54 55 61 59 55 50 51 48 50 45 36 34 37 38 24 29 30 29 30 38
24 24 24 25 23 25 29 28 27 31 37 41 43 45 45 44 44 52 53 50 54 56 56 51 49 49 46 33 33 34 33 30 31 32 26 29 33 26
29 28 32 31 32 31 33 36 37 35 39 45 48 48 51 52 51 50 51 52 57 49 49 48 49 46 36 32 36 37 38 34 32 33 32 22 28 34
23 26 29 29 30 29 30 31 32 33 33 34 42 44 45 37 41 42 44 41 44 47 50 51 46 43 34 39 40 40 38 36 39 31 31 26 24 23
22 24 26 24 22 28 31 31 24 18 17 22 29 32 30 28 39 40 47 48 51 53 47 52 46 51 46 43 35 39 42 40 34 34 32 32 27 24
19 23 27 27 23 10 15 16 20 21 23 29 32 29 31 35 42 47 48 51 57 54 49 44 48 38 42 42 45 35 38 30 25 26 26 28 30 27
14 15 16 10 3 6 18 17 26 29 25 29 34 40 43 45 45 43 40 38 38 39 13 20 40 42 40 36 14 17 21 26 28 26 23 22 22 29
3 4 6 5 6 16 23 19 13 27 28 33 37 34 28 26 28 30 29 34 38 39 36 38 35 34 44 50 52 45 30 36 36 35 36 35 39 45
10 8 10 13 14 18 16 13 21 18 15 17 23 25 26 25 24 24 28 29 31 35 38 37 40 42 44 49 52 55 51 46 45 45 47 56 56 42
15 14 17 11 14 13 9 2 7 11 15 22 27 27 27 28 27 25 24 26 31 33 30 29 28 30 31 35 41 42 42 45 39 43 43 40 38 40
12 13 12 7 4 7 5 7 12 15 21 24 27 30 35 37 32 26 28 27 32 31 17 21 26 29 34 36 38 38 32 34 36 36 28 33 40 39
12 14 6 6 6 5 4 7 11 13 18 26 32 36 38 41 40 39 33 29 32 35 31 23 23 28 32 36 39 39 35 34 34 36 34 35 38 39
15 9 4 4 2 2 2 4 9 13 19 23 27 32 35 37 39 42 45 44 39 33 33 27 27 28 30 33 30 29 28 32 32 30 30 36 37 34
10 8 8 8 7 3 7 11 13 16 21 24 28 27 33 35 37 39 41 42 46 44 35 31 30 28 33 38 38 29 28 29 31 32 29 31 34 26
14 12 12 14 12 11 11 17 22 23 26 30 30 34 36 38 41 41 43 44 43 45 49 43 35 28 30 36 42 38 33 36 30 32 26 22 20 20
14 14 18 21 23 21 20 23 25 28 32 35 34 38 40 40 43 56 48 39 40 42 46 45 39 28 31 35 42 44 36 33 34 30 29 25 25 24
15 18 21 24 28 32 26 27 30 32 34 39 41 41 40 39 43 56 44 45 43 45 45 43 36 36 32 31 35 40 38 31 25 29 29 30 31 26
21 23 26 27 30 30 27 31 35 35 36 38 38 38 35 36 53 49 46 50 49 42 43 46 41 37 34 37 37 36 35 27 23 26 31 32 35 36
Wind_Direction_850mb
226 244 271 255 257 254 257 259 258 240 247 257 256 266 269 274 279 280 282 285 281 276 284 292 298 302 301 301 296 293 291 285 279 274 277 268 263 258
260 254 246 247 245 255 259 270 282 286 277 278 268 274 284 290 281 276 286 282 282 288 294 296 297 300 300 299 295 289 287 286 278 270 263 267 268 265
226 229 233 238 249 257 269 275 273 261 265 268 280 284 286 289 294 294 292 294 297 303 301 302 297 288 287 290 296 294 289 285 284 275 267 262 260 258
211 211 225 237 248 253 248 255 263 270 277 282 285 284 282 285 290 288 291 293 290 291 296 306 290 285 289 293 295 288 282 278 283 280 264 258 255 250
218 209 209 224 247 257 261 268 275 278 283 284 285 285 289 291 290 287 285 282 282 288 294 297 287 285 292 296 291 289 290 270 272 279 264 256 251 243
198 214 235 246 249 259 276 280 280 282 282 281 284 288 293 294 295 299 296 295 296 297 294 292 289 288 287 297 284 288 289 287 284 277 268 257 255 245
232 238 247 254 259 273 277 277 275 277 284 287 293 296 297 298 302 303 303 305 303 302 302 298 297 292 286 276 269 281 284 281 280 287 264 253 259 251
244 250 251 254 259 263 268 271 275 286 290 293 292 292 292 295 299 300 298 301 304 313 311 302 303 301 299 287 282 279 263 267 273 280 286 279 269 259
248 251 256 260 263 267 270 279 280 281 286 296 294 293 296 300 302 305 307 306 309 312 309 304 302 299 305 287 286 274 273 262 260 262 266 268 267 266
251 256 260 263 268 273 272 278 291 305 308 295 300 302 303 306 304 303 300 302 300 300 308 295 301 303 307 292 295 273 263 267 259 251 264 268 262 266
254 259 266 267 269 267 282 296 304 313 296 293 291 289 298 284 282 291 293 296 300 302 298 297 294 302 303 302 299 282 255 244 244 244 262 275 259 260
249 254 261 260 220 286 284 293 310 308 313 308 301 301 296 291 289 290 293 293 304 302 317 299 301 304 305 314 323 300 244 233 246 256 265 261 274 280
318 237 194 177 274 256 267 287 303 289 300 303 307 311 320 319 313 307 303 298 295 285 285 297 296 291 291 292 295 295 271 235 238 241 248 253 281 278
288 262 266 256 265 258 247 229 268 312 330 346 348 340 333 330 325 316 308 299 297 294 298 300 291 284 280 286 292 291 289 276 260 251 255 265 276 265
284 271 280 229 256 260 284 14 36 10 12 21 17 9 353 339 331 317 315 304 294 293 295 295 292 289 288 288 295 296 292 286 279 273 271 266 253 257
281 289 267 286 265 142 112 52 22 19 18 10 12 12 13 11 8 340 328 326 320 318 299 289 296 294 290 287 291 295 290 283 284 279 269 256 247 250
282 297 197 169 184 144 65 41 16 10 7 5 6 4 3 3 5 6 354 335 322 319 316 311 297 289 286 286 286 285 285 289 293 288 277 268 253 247
267 264 214 231 266 316 289 337 342 342 342 347 350 352 353 355 355 358 355 355 346 329 322 319 305 298 292 293 293 292 283 296 296 288 277 270 264 247
276 249 249 260 286 342 329 331 346 342 333 323 328 336 339 337 340 340 341 342 341 340 336 326 312 300 299 291 306 296 292 302 294 289 279 268 253 252
284 259 262 270 291 293 297 303 315 325 322 319 324 323 323 322 327 329 330 333 331 333 333 329 320 307 297 295 301 299 291 289 294 280 277 263 260 261
296 267 270 272 282 289 298 305 311 315 314 315 319 318 322 326 316 326 328 323 318 321 321 329 333 315 292 288 286 291 295 294 284 276 268 260 264 264
291 280 275 273 281 291 294 293 298 303 308 310 312 315 315 315 317 320 324 324 321 321 312 315 322 328 316 303 294 296 300 296 269 259 258 257 255 257
280 280 275 271 273 280 290 287 290 297 304 307 318 315 317 308 308 320 321 321 318 314 320 318 313 310 315 312 310 308 312 318 296 264 251 252 255 257